Location: Bovenkerk
(52.2915°N, 4.8336°E)
Time: 04:21:12
(UTC+00:00)

Cosmos 1461 - Pass Details

Date: 09 April 2020
Orbit: 507 x 659 km, 65.0° (Epoch: 01 June)

Event Time Altitude Azimuth Distance (km) Brightness Sun altitude
Rises 18:54:55 0° 316° (NW) 2,870 7.8 -4.6°
Reaches altitude 10° 18:57:09 10° 315° (NW) 1,986 6.9 -4.9°
Maximum altitude 19:01:38 75° 232° (SW) 662 3.3 -5.5°
Drops below altitude 10° 19:06:17 10° 146° (SSE) 2,048 5.2 -6.2°
Enters shadow 19:07:53 - 145° (SE) 2,676 5.8 -6.4°
